Flag for U.S.A. Weather past 2 weeks in Paradise, Nevada, U.S.A.

Now
102 °F

Sunny.


Feels Like: 96 °F
Forecast: 72 / 102 °F
Wind: 5 mph from South

Location: McCarran International Airport

Current Time: Aug 28, 2014 at 5:20:27 PM

Latest Report: Aug 28, 2014 at 4:56 PM


Visibility: 10 mi

Pressure: 29.77 "Hg

Humidity: 8%

Dew point: 31 °F

Location of ParadiseLocation

Historic Weather in Paradise — Graph

°F

Paradise temperature yesterday

Maximum temperature yesterday: 96 °F (at 4:56 PM)
Minimum temperature yesterday: 75 °F (at 5:56 AM)
Average temperature yesterday: 85 °F

Past Weeks' High & Low Weather Summary

 TemperatureHumidityPressure
High107 °F (Aug 17, 2:56 PM)62% (Aug 19, 8:56 AM)30.00 "Hg (Aug 19, 8:56 AM)
Low71 °F (Aug 22, 4:56 AM)4% (Aug 15, 12:56 PM)29.62 "Hg (Aug 24, 6:56 PM)
Average88 °F22%29.79 "Hg
* Reported Aug 13 3:56 PM — Aug 28 3:56 PM, Paradise, Weather by CustomWeather, © 2014

Note: Actual official high and low records may vary slightly from our data, if they occured in-between our weather recording intervals... More about our weather records

Advertising

Paradise weather history for previous 24 hours

 ConditionsComfort  
Time TempWeatherWind HumidityBarometerVisibility
3:56 PM
Aug 28
101 °FSunny.No wind8%29.79 "Hg10 mi
2:56 PM101 °FSunny.3 mph9%29.82 "Hg10 mi
1:56 PM98 °FSunny.5 mph11%29.85 "Hg10 mi
12:56 PM95 °FSunny.5 mph13%29.89 "Hg10 mi
11:56 AM94 °FSunny.3 mph14%29.92 "Hg10 mi
10:56 AM90 °FSunny.3 mph17%29.95 "Hg10 mi
9:56 AM89 °FSunny.3 mph16%29.96 "Hg10 mi
8:56 AM85 °FSunny.6 mph20%29.96 "Hg10 mi
7:56 AM82 °FSunny.3 mph21%29.96 "Hg10 mi
6:56 AM77 °FClear.8 mph26%29.94 "Hg10 mi
5:56 AM77 °FClear.8 mph24%29.93 "Hg10 mi
4:56 AM77 °FClear.8 mph26%29.91 "Hg10 mi
3:56 AM79 °FClear.5 mph23%29.90 "Hg10 mi
2:56 AM79 °FClear.9 mph24%29.90 "Hg10 mi
1:56 AM80 °FClear.7 mph22%29.90 "Hg10 mi
12:56 AM82 °FClear.8 mph18%29.90 "Hg10 mi
11:56 PM
Aug 27
85 °FClear.8 mph16%29.90 "Hg10 mi
10:56 PM86 °FClear.10 mph16%29.90 "Hg10 mi
9:56 PM89 °FClear.7 mph15%29.90 "Hg10 mi
8:56 PM90 °FClear.6 mph14%29.90 "Hg10 mi
7:56 PM92 °FSunny.6 mph13%29.88 "Hg10 mi
6:56 PM94 °FSunny.3 mph11%29.87 "Hg10 mi
5:56 PM96 °FPassing clouds.3 mph10%29.87 "Hg10 mi
Weather by CustomWeather, © 2014

See weather overviewHow to use our weather pages